JQ1YUX-13 Weather Reports


Display with metric or nautical units.
time (UTC)temp
F
wind
direction
speed
MPH
gust
MPH
rain 1hr
in
rain 24hr
in
rain mn
in
humidity
%
barometer
mb
20260508153318 70 6 1.0 2.0 0.00 0.00 0.00 62 1002.8
20260508151818 70 4 5.0 6.0 0.00 0.00 0.00 62 1003.0
20260508150318 71 336 2.0 5.0 0.00 0.00 0.00 65 1002.8
20260508144817 71 28 5.0 6.0 0.00 0.00 0.00 75 1002.6
20260508143318 71 322 1.0 8.0 0.00 0.00 0.00 74 1002.1
20260508141818 72 306 3.0 7.0 0.00 0.00 0.00 73 1001.8
20260508140318 71 225 7.0 10.0 0.00 0.00 0.00 74 1001.5
20260508134818 72 229 2.0 5.0 0.00 0.00 0.00 73 1001.4
20260508133317 72 183 2.0 6.0 0.00 0.00 0.00 74 1001.3
20260508131818 72 198 3.0 8.0 0.00 0.00 0.00 74 1001.2
20260508130318 72 210 2.0 6.0 0.00 0.00 0.00 74 1001.3
20260508124817 72 223 3.0 5.0 0.00 0.00 0.00 75 1000.9
20260508123317 72 197 5.0 7.0 0.00 0.00 0.00 75 1001.1
20260508121818 73 190 3.0 5.0 0.00 0.00 0.00 74 1001.1
20260508120318 73 206 7.0 15.0 0.00 0.00 0.00 75 1001.0
20260508114817 73 223 7.0 8.0 0.00 0.00 0.00 76 1001.1
20260508113318 73 230 7.0 20.0 0.00 0.00 0.00 78 1000.9
20260508111818 72 200 6.0 8.0 0.00 0.00 0.00 80 1000.8
20260508110319 73 212 2.0 6.0 0.00 0.00 0.00 81 1000.6
20260508104817 73 205 6.0 10.0 0.00 0.00 0.00 81 1000.5
20260508103318 73 204 7.0 12.0 0.00 0.00 0.00 82 1000.3
20260508101818 73 200 8.0 13.0 0.00 0.00 0.00 82 1000.6
20260508100317 74 195 6.0 8.0 0.00 0.00 0.00 81 1000.6
20260508094818 74 206 5.0 9.0 0.00 0.00 0.00 81 1001.0
20260508093318 74 181 3.0 6.0 0.00 0.00 0.00 80 1000.9
20260508091819 74 179 2.0 7.0 0.00 0.00 0.00 80 1000.8
20260508090317 74 193 6.0 9.0 0.00 0.00 0.00 79 1001.1
20260508084818 74 210 6.0 8.0 0.00 0.00 0.00 80 1001.0
20260508083317 73 211 5.0 6.0 0.00 0.00 0.00 81 1000.6
20260508081818 73 213 7.0 10.0 0.00 0.00 0.00 82 1001.2
20260508081000 73 209 6.0 10.0 0.00 0.00 0.00 82 1001.1
20260508075459 73 195 9.0 14.0 0.00 0.00 0.00 81 1000.9
20260508074000 74 211 6.0 8.0 0.00 0.00 0.00 80 1001.1
20260508072459 75 199 7.0 10.0 0.00 0.00 0.00 78 1001.2
20260508071000 76 191 3.0 8.0 0.00 0.00 0.00 78 1001.2
20260508065501 76 222 8.0 12.0 0.00 0.00 0.00 78 1001.2
20260508064000 76 205 6.0 12.0 0.00 0.00 0.00 78 1001.3
20260508062500 76 210 7.0 13.0 0.00 0.00 0.00 79 1001.6
20260508060959 76 204 8.0 16.0 0.00 0.00 0.00 79 1001.5
20260508055500 77 203 6.0 12.0 0.00 0.00 0.00 80 1001.7
20260508054000 77 203 6.0 9.0 0.00 0.00 0.00 79 1001.5
20260508052459 77 227 3.0 7.0 0.00 0.00 0.00 79 1002.2
20260508051000 77 202 5.0 12.0 0.00 0.00 0.00 80 1002.7
20260508044423 77 224 7.0 8.0 0.00 0.00 0.00 80 1002.6
20260508042923 77 179 5.0 9.0 0.00 0.00 0.00 81 1002.9
20260508041424 77 217 6.0 9.0 0.00 0.00 0.00 80 1003.3
20260508022721 77 219 8.0 14.0 0.00 0.00 0.00 79 1005.2
20260508012211 78 216 5.0 8.0 0.00 0.00 0.00 77 1005.1
20260508001007 78 185 3.0 5.0 0.00 0.00 0.00 77 1006.0
20260507221102 71 223 1.0 5.0 0.00 0.00 0.00 87 1006.9
20260507211016 69 186 0.0 0.0 0.00 0.00 0.00 89 1006.9
20260507201842 68 192 0.0 0.0 0.00 0.00 0.00 89 1006.9
20260507194844 68 216 0.0 0.0 0.00 0.00 0.00 89 1006.7
20260507182603 69 180 0.0 0.0 0.00 0.00 0.00 88 1006.6
20260507174844 69 209 0.0 0.0 0.00 0.00 0.00 88 1006.7
20260507171100 69 177 1.0 2.0 0.00 0.00 0.00 88 1006.9
20260507162504 69 194 0.0 0.0 0.00 0.01 0.00 89 1007.3
20260507161030 69 210 3.0 5.0 0.00 0.01 0.00 88 1007.6